Regional Weather Roundup
Issued by NWS Goodland, KS

Home | Current Version | Previous Version | Graphics & Text | Print | Product List | Glossary On
Versions: 1 2 3 4 5 6 7 8 9 10 11 12 13 14 15 16 17 18 19 20 21 22 23 24 25 26 27 28 29 30 31 32 33 34 35 36 37 38 39 40 41 42 43 44 45 46 47 48 49 50
000
ASUS43 KGLD 300859
RWRGLD

GOODLAND FORECAST AREA HOURLY WEATHER ROUNDUP
NATIONAL WEATHER SERVICE GOODLAND KS
300 AM MDT WED JUL 30 2014

...OFFICIAL OBSERVATIONS...

CITY           SKY/WX    TMP DP  RH WIND       PRES   REMARKS
GOODLAND KS    CLOUDY    62  62 100 N12       30.15S
HILL CITY KS   CLOUDY    69  56  62 NE13      30.13R
IMPERIAL NEB   CLOUDY    63  60  90 SE8       30.19F
MCCOOK NEB     LGT RAIN  63  61  93 E5        30.17S
AKRON CO       CLOUDY    60  59  96 NE13      30.23F
BURLINGTON CO  CLOUDY    61  59  93 NE10      30.16S
LIMON CO       CLOUDY    58  56  93 NE5       30.23F
$$

...UNOFFICIAL OBSERVATIONS...

CITY           SKY/WX    TMP DP  RH WIND       PRES   REMARKS
GOVE KS          N/A     66  32  28 MISG        N/A
LENORA KS        N/A     67  32  27 MISG        N/A
TRENTON NEB      N/A     62  32  32 E12         N/A
KIT CARSON CO    N/A     61  58  88 N9          N/A
YUMA CO          N/A     62  62 100 NE6         N/A
$$



USA.gov is the U.S. government's official web portal to all federal, state and local government web resources and services.